Location: Colle Santa Colomba
(42.0333°N, 12.5667°E)
Time: 02:13:27
(UTC+00:00)

Cosmos 2278 Rocket - Pass Details

Date: 25 October 2021
Orbit: 841 x 845 km, 71.0° (Epoch: 05 December)

Event Time Altitude Azimuth Distance (km) Brightness Sun altitude
Rises 19:15:33 0° 338° (NNW) 3,413 5.8 -34.3°
Reaches altitude 10° 19:18:02 10° 342° (NNW) 2,473 4.9 -34.8°
Enters shadow 19:19:52 21° 348° (NNW) 1,814 4.1 -35.1°
